• In Belarus
  • List of Countries
  • For 7 days
  • Water Temperature
  • Satellite Maps
  • Weather Map
  • Weather Widgets
  • user-avatar
    Login

    Hourly Weather Natitingou

    Today, 21 July, Sunday

    Time Temperature Precipitation Wind Pressure Humidity
    00:00 +23°C° 0 mm 1 mps 719 mmHg 88%
    01:00 +22°C° 0 mm 1 mps 718 mmHg 89%
    02:00 +22°C° 0 mm 1 mps 718 mmHg 91%
    03:00 +20°C° 0 mm 0 mps 717 mmHg 92%
    04:00 +22°C° 0 mm 1 mps 718 mmHg 92%
    05:00 +22°C° 0 mm 1 mps 718 mmHg 93%
    06:00 +22°C° 0 mm 1 mps 719 mmHg 94%
    07:00 +24°C° 0 mm 2 mps 719 mmHg 89%
    08:00 +25°C° 0 mm 2 mps 719 mmHg 84%
    09:00 +27°C° 0 mm 3 mps 719 mmHg 79%
    10:00 +28°C° 0 mm 3 mps 719 mmHg 74%
    11:00 +29°C° 0 mm 2 mps 719 mmHg 70%
    12:00 +30°C° 0 mm 2 mps 719 mmHg 65%
    13:00 +30°C° 0.2 mm 2 mps 718 mmHg 64%
    14:00 +31°C° 0.2 mm 1 mps 717 mmHg 62%
    15:00 +31°C° 0.2 mm 1 mps 716 mmHg 61%
    16:00 +30°C° 0.2 mm 1 mps 716 mmHg 67%
    17:00 +29°C° 0.2 mm 1 mps 717 mmHg 72%
    18:00 +27°C° 0.2 mm 1 mps 717 mmHg 78%
    19:00 +26°C° 0 mm 2 mps 717 mmHg 82%
    20:00 +25°C° 0 mm 2 mps 717 mmHg 86%
    21:00 +24°C° 0 mm 2 mps 718 mmHg 89%
    22:00 +24°C° 0 mm 2 mps 718 mmHg 91%
    23:00 +24°C° 0 mm 2 mps 718 mmHg 92%

    Tomorrow, 22 July, Monday

    Time Temperature Precipitation Wind Pressure Humidity
    00:00 +24°C° 0 mm 2 mps 718 mmHg 94%
    01:00 +23°C° 0 mm 2 mps 717 mmHg 94%
    02:00 +23°C° 0 mm 2 mps 717 mmHg 95%
    03:00 +23°C° 0 mm 2 mps 717 mmHg 95%
    04:00 +23°C° 0 mm 2 mps 717 mmHg 95%
    05:00 +23°C° 0 mm 2 mps 717 mmHg 95%
    06:00 +22°C° 0 mm 3 mps 718 mmHg 95%
    07:00 +24°C° 0 mm 3 mps 718 mmHg 91%
    08:00 +25°C° 0 mm 4 mps 718 mmHg 86%
    09:00 +26°C° 0 mm 4 mps 719 mmHg 81%
    10:00 +27°C° 0 mm 4 mps 719 mmHg 77%
    11:00 +28°C° 0 mm 3 mps 719 mmHg 74%
    12:00 +29°C° 0 mm 2 mps 719 mmHg 70%
    13:00 +29°C° 0.3 mm 2 mps 718 mmHg 71%
    14:00 +29°C° 0.3 mm 2 mps 717 mmHg 71%
    15:00 +29°C° 0.3 mm 2 mps 717 mmHg 71%
    16:00 +28°C° 1 mm 2 mps 716 mmHg 78%
    17:00 +26°C° 1 mm 2 mps 716 mmHg 84%
    18:00 +25°C° 1 mm 2 mps 716 mmHg 91%
    19:00 +25°C° 0 mm 1 mps 717 mmHg 92%
    20:00 +25°C° 0 mm 1 mps 717 mmHg 92%
    21:00 +24°C° 0 mm 1 mps 717 mmHg 92%
    22:00 +24°C° 0.2 mm 1 mps 717 mmHg 93%
    23:00 +24°C° 0.2 mm 1 mps 717 mmHg 94%

    Day after tomorrow, 23 July, Tuesday

    Time Temperature Precipitation Wind Pressure Humidity
    00:00 +24°C° 0.2 mm 1 mps 718 mmHg 94%
    01:00 +24°C° 0.8 mm 1 mps 717 mmHg 94%
    02:00 +24°C° 0.8 mm 2 mps 717 mmHg 93%
    03:00 +24°C° 0.8 mm 2 mps 717 mmHg 93%
    04:00 +24°C° 1.8 mm 3 mps 717 mmHg 94%
    05:00 +22°C° 1.8 mm 3 mps 717 mmHg 95%
    06:00 +22°C° 1.8 mm 3 mps 717 mmHg 96%
    07:00 +22°C° 1.9 mm 3 mps 717 mmHg 96%
    08:00 +22°C° 1.9 mm 3 mps 718 mmHg 96%
    09:00 +22°C° 1.9 mm 3 mps 718 mmHg 96%
    10:00 +22°C° 2.9 mm 3 mps 718 mmHg 96%
    11:00 +22°C° 2.9 mm 3 mps 718 mmHg 97%
    12:00 +23°C° 2.9 mm 2 mps 718 mmHg 97%
    13:00 +23°C° 9.5 mm 2 mps 718 mmHg 97%
    14:00 +23°C° 9.5 mm 2 mps 717 mmHg 98%
    15:00 +23°C° 9.5 mm 2 mps 717 mmHg 98%
    16:00 +23°C° 2.8 mm 2 mps 717 mmHg 97%
    17:00 +22°C° 2.8 mm 3 mps 717 mmHg 97%
    18:00 +21°C° 2.8 mm 3 mps 718 mmHg 96%
    19:00 +21°C° 0 mm 3 mps 718 mmHg 96%
    20:00 +21°C° 0 mm 3 mps 718 mmHg 97%
    21:00 +21°C° 0 mm 2 mps 718 mmHg 97%
    22:00 +21°C° 0 mm 2 mps 718 mmHg 97%
    23:00 +21°C° 0 mm 2 mps 718 mmHg 97%

    24 July, Wednesday

    Time Temperature Precipitation Wind Pressure Humidity
    00:00 +21°C° 0 mm 2 mps 718 mmHg 97%
    01:00 +21°C° 0 mm 2 mps 718 mmHg 97%
    02:00 +21°C° 0 mm 1 mps 718 mmHg 97%
    03:00 +21°C° 0 mm 1 mps 718 mmHg 98%
    04:00 +21°C° 0 mm 1 mps 718 mmHg 98%
    05:00 +21°C° 0 mm 1 mps 718 mmHg 98%
    06:00 +21°C° 0 mm 1 mps 718 mmHg 98%
    07:00 +21°C° 0 mm 2 mps 719 mmHg 94%
    08:00 +23°C° 0 mm 2 mps 719 mmHg 91%
    09:00 +24°C° 0 mm 3 mps 719 mmHg 88%
    10:00 +25°C° 0.1 mm 3 mps 719 mmHg 83%
    11:00 +27°C° 0.1 mm 3 mps 719 mmHg 79%
    12:00 +28°C° 0.1 mm 3 mps 718 mmHg 75%
    13:00 +28°C° 0.1 mm 3 mps 718 mmHg 73%
    14:00 +28°C° 0.1 mm 3 mps 717 mmHg 72%
    15:00 +29°C° 0.1 mm 3 mps 717 mmHg 70%
    16:00 +28°C° 0.4 mm 3 mps 717 mmHg 76%
    17:00 +27°C° 0.4 mm 2 mps 717 mmHg 81%
    18:00 +26°C° 0.4 mm 2 mps 717 mmHg 86%
    19:00 +25°C° 0.8 mm 2 mps 717 mmHg 88%
    20:00 +24°C° 0.8 mm 1 mps 718 mmHg 91%
    21:00 +24°C° 0.8 mm 1 mps 718 mmHg 93%
    22:00 +23°C° 0.3 mm 1 mps 718 mmHg 94%
    23:00 +23°C° 0.3 mm 1 mps 718 mmHg 94%

    25 July, Thursday

    Time Temperature Precipitation Wind Pressure Humidity
    00:00 +23°C° 0.3 mm 1 mps 718 mmHg 95%
    01:00 +23°C° 0 mm 1 mps 718 mmHg 95%
    02:00 +23°C° 0 mm 1 mps 718 mmHg 95%
    03:00 +23°C° 0 mm 1 mps 717 mmHg 94%
    04:00 +23°C° 0 mm 1 mps 718 mmHg 95%
    05:00 +23°C° 0 mm 1 mps 718 mmHg 95%
    06:00 +23°C° 0 mm 1 mps 718 mmHg 95%
    07:00 +24°C° 0.5 mm 2 mps 718 mmHg 93%
    08:00 +25°C° 0.5 mm 3 mps 719 mmHg 90%
    09:00 +25°C° 0.5 mm 3 mps 719 mmHg 88%
    10:00 +26°C° 0.2 mm 3 mps 719 mmHg 85%
    11:00 +27°C° 0.2 mm 3 mps 718 mmHg 82%
    12:00 +27°C° 0.2 mm 3 mps 718 mmHg 80%
    13:00 +28°C° 0.1 mm 3 mps 717 mmHg 78%
    14:00 +28°C° 0.1 mm 3 mps 717 mmHg 76%
    15:00 +29°C° 0.1 mm 2 mps 716 mmHg 73%
    16:00 +28°C° 0.1 mm 2 mps 716 mmHg 78%
    17:00 +27°C° 0.1 mm 2 mps 716 mmHg 83%
    18:00 +26°C° 0.1 mm 2 mps 716 mmHg 88%
    19:00 +25°C° 0.1 mm 2 mps 717 mmHg 90%
    20:00 +25°C° 0.1 mm 2 mps 717 mmHg 92%
    21:00 +24°C° 0.1 mm 1 mps 718 mmHg 94%
    22:00 +24°C° 0 mm 1 mps 718 mmHg 93%
    23:00 +23°C° 0 mm 1 mps 718 mmHg 92%

    26 July, Friday

    Time Temperature Precipitation Wind Pressure Humidity
    00:00 +23°C° 0 mm 1 mps 718 mmHg 91%
    01:00 +23°C° 0.1 mm 1 mps 717 mmHg 93%
    02:00 +23°C° 0.1 mm 1 mps 717 mmHg 94%
    03:00 +23°C° 0.1 mm 1 mps 717 mmHg 95%
    04:00 +23°C° 0.2 mm 2 mps 717 mmHg 96%
    05:00 +23°C° 0.2 mm 2 mps 718 mmHg 97%
    06:00 +23°C° 0.2 mm 2 mps 718 mmHg 97%
    07:00 +24°C° 0 mm 3 mps 718 mmHg 94%
    08:00 +24°C° 0 mm 3 mps 719 mmHg 92%
    09:00 +25°C° 0 mm 3 mps 719 mmHg 89%
    10:00 +26°C° 0.2 mm 3 mps 719 mmHg 86%
    11:00 +27°C° 0.2 mm 2 mps 719 mmHg 83%
    12:00 +27°C° 0.2 mm 2 mps 719 mmHg 80%
    13:00 +26°C° 4.3 mm 2 mps 718 mmHg 84%
    14:00 +24°C° 4.3 mm 3 mps 718 mmHg 88%
    15:00 +21°C° 4.3 mm 3 mps 717 mmHg 92%
    16:00 +21°C° 0.9 mm 2 mps 717 mmHg 93%
    17:00 +23°C° 0.9 mm 1 mps 717 mmHg 93%
    18:00 +21°C° 0.9 mm 0 mps 716 mmHg 94%
    19:00 +22°C° 0 mm 1 mps 717 mmHg 95%
    20:00 +22°C° 0 mm 1 mps 717 mmHg 96%
    21:00 +21°C° 0 mm 2 mps 717 mmHg 97%
    22:00 +21°C° 0 mm 2 mps 717 mmHg 97%
    23:00 +21°C° 0 mm 2 mps 717 mmHg 97%
    Show more